Total_Precipitation_Accumulation
0.03 0.16 0.50 1.26 5.13 2.81 3.29 2.16 0.75 0.57 0.36 0.13 0.08 0.27 0.31 0.51 0.82 0.79 0.26 0.51 0.17 0.10 0.76 1.82 2.56 1.53 0.83 0.73 1.02 0.85 0.80 0.87 0.71 0.59 0.49 0.34 0.35 0.56 0.65 0.57 0.69 0.78 0.76 0.77 0.62 0.47 0.49 0.81 1.10
0.09 0.31 1.09 4.53 5.86 4.51 3.43 2.10 1.07 0.41 0.14 0.04 0.09 0.16 0.17 0.15 0.11 0.09 0.32 0.38 0.10 0.07 0.33 0.71 1.56 1.19 0.67 0.55 0.62 0.69 0.75 0.87 0.86 0.47 0.45 0.60 0.93 1.05 1.09 0.90 0.86 0.93 0.97 0.66 0.49 0.54 0.53 0.68 0.86
0.15 0.43 4.24 6.61 4.70 3.79 2.67 2.09 1.09 0.20 0.11 0.10 0.36 0.56 0.15 0.14 0.05 0.07 0.11 0.15 0.21 0.39 0.20 0.41 0.80 0.86 0.60 0.59 0.69 0.84 0.67 0.92 0.68 0.54 0.64 0.80 1.07 1.26 1.25 0.89 0.99 1.11 0.87 0.82 0.85 0.83 0.72 0.53 0.76
0.58 2.77 5.55 6.71 5.30 1.93 1.18 0.91 0.43 0.28 0.25 0.27 0.39 0.47 0.16 0.07 0.04 0.02 0.11 0.49 0.23 0.39 0.16 0.34 0.51 0.64 0.81 0.74 0.83 0.75 0.57 0.66 1.02 0.96 0.68 0.77 0.81 0.87 0.73 0.97 1.14 0.97 0.74 0.87 0.87 0.80 0.99 0.87 0.77
1.15 4.53 8.13 7.43 4.23 1.25 0.80 0.77 0.44 0.37 0.48 0.47 0.39 0.22 0.15 0.11 0.03 0.02 0.06 0.13 0.12 0.13 0.09 0.23 0.88 0.76 0.69 0.83 0.61 0.64 0.68 0.76 1.03 1.06 1.05 1.32 1.39 1.06 0.82 0.87 0.91 0.78 0.69 0.57 0.61 0.57 0.63 0.79 0.69
2.85 3.83 6.61 4.37 3.67 2.07 0.89 1.19 0.69 0.53 0.42 0.31 0.30 0.13 0.25 0.11 0.05 0.08 0.09 0.11 0.06 0.05 0.02 0.07 0.53 0.72 0.65 0.83 1.00 0.68 0.60 0.80 1.19 1.52 1.56 1.62 1.54 1.12 0.94 0.76 0.38 0.33 0.25 0.29 0.32 0.31 0.41 0.51 0.54
2.44 6.42 6.50 4.56 6.36 5.10 1.66 1.55 1.53 0.92 0.43 0.17 0.18 0.11 0.29 0.32 0.22 0.19 0.17 0.19 0.18 0.08 0.03 0.08 0.14 0.46 0.60 0.91 1.10 0.76 0.88 1.21 1.25 1.17 1.35 0.90 0.94 0.79 0.65 0.56 0.37 0.13 0.18 0.24 0.40 0.61 0.56 0.32 0.53
3.51 4.19 7.03 8.04 8.04 7.83 2.51 1.45 1.66 1.62 0.75 0.18 0.12 0.08 0.12 0.08 0.13 0.14 0.19 0.29 0.36 0.18 0.18 0.23 0.18 0.40 0.74 0.63 0.95 0.94 1.06 1.25 1.17 1.25 1.27 1.19 0.74 0.94 0.65 0.77 0.59 0.18 0.20 0.31 0.47 0.53 0.41 0.38 0.49
1.74 4.10 5.37 5.62 4.43 3.89 2.02 2.15 2.64 1.27 0.61 0.22 0.26 0.12 0.02 0.02 0.12 0.11 0.13 0.19 0.25 0.36 0.37 0.78 0.32 0.27 0.47 0.58 0.99 1.18 1.40 1.53 1.79 1.42 1.65 1.78 0.91 0.66 0.53 0.73 0.39 0.33 0.27 0.33 0.36 0.45 0.65 0.77 0.60
1.90 4.64 3.08 1.55 1.15 2.14 2.09 3.22 3.52 2.09 1.01 0.35 0.24 0.09 0.01 0.02 0.05 0.02 0.04 0.05 0.23 0.23 0.34 1.47 0.97 0.40 0.70 0.32 0.88 1.05 1.15 1.27 1.24 1.17 1.59 1.89 0.66 0.62 0.39 0.41 0.48 0.36 0.34 0.43 0.49 1.03 1.67 1.05 0.30
1.41 3.41 1.72 1.21 1.00 1.38 2.11 2.96 2.36 2.01 1.53 0.41 0.23 0.05 0.01 0.04 0.12 0.03 0.05 0.06 0.07 0.11 0.22 0.76 0.43 0.45 0.76 0.51 0.44 0.59 0.53 0.57 0.92 1.21 1.25 1.27 0.61 0.49 0.51 0.47 0.53 0.66 0.50 0.74 0.60 0.74 0.80 0.49 0.25
1.68 1.22 1.16 1.37 0.73 1.03 2.22 3.11 3.28 2.12 2.07 0.77 0.31 0.04 0.00 0.00 0.03 0.04 0.04 0.05 0.05 0.08 0.17 0.64 0.28 0.71 0.81 0.93 2.12 1.37 0.27 0.11 0.71 0.67 0.73 1.05 0.72 0.78 0.68 0.69 0.86 1.23 1.02 1.35 0.94 0.28 0.38 0.28 0.58
1.51 1.34 1.40 1.42 0.73 0.98 1.64 2.21 2.51 1.82 1.74 0.67 0.23 0.00 0.00 0.02 0.10 0.10 0.02 0.08 0.08 0.07 0.05 0.08 0.17 0.55 0.51 0.56 0.53 0.83 0.31 0.27 0.39 0.47 0.56 0.84 0.73 0.51 0.39 0.75 1.02 1.17 0.64 1.01 0.67 0.47 0.24 0.11 0.06
0.66 0.97 1.04 1.18 0.98 1.03 1.51 2.22 1.78 1.17 0.83 0.59 0.10 0.00 0.00 0.05 0.03 0.01 0.02 0.05 0.08 0.03 0.06 0.16 0.14 0.17 0.26 0.41 0.67 0.67 0.32 0.40 0.20 0.15 0.33 0.58 0.69 0.73 0.57 0.50 0.42 0.63 0.72 0.55 0.41 0.54 0.20 0.07 0.03
0.29 0.99 1.34 1.32 1.16 1.06 1.07 2.34 2.34 1.92 0.87 0.44 0.12 0.00 0.00 0.03 0.03 0.01 0.01 0.01 0.02 0.04 0.03 0.06 0.01 0.12 0.30 0.57 0.88 0.75 0.21 0.17 0.16 0.16 0.58 0.92 0.79 0.96 0.95 0.85 0.53 0.45 0.43 0.39 0.39 0.29 0.15 0.03 0.00
0.80 1.34 2.72 2.66 1.56 1.19 1.27 2.47 2.31 2.69 1.93 0.45 0.12 0.03 0.05 0.01 0.08 0.02 0.01 0.01 0.01 0.03 0.03 0.05 0.01 0.06 0.08 0.20 0.44 0.37 0.11 0.10 0.17 0.21 0.28 0.71 1.20 0.94 0.95 1.27 0.68 0.49 0.49 0.39 0.41 0.18 0.12 0.03 0.03
0.83 1.00 1.92 3.19 2.76 1.94 1.61 2.59 1.67 1.82 1.29 0.64 0.07 0.05 0.10 0.10 0.06 0.02 0.02 0.02 0.02 0.01 0.00 0.03 0.10 0.19 0.15 0.23 0.31 0.59 0.38 0.33 0.23 0.10 0.26 0.32 0.60 0.96 1.52 1.89 1.26 0.59 0.51 0.43 0.32 0.19 0.04 0.02 0.02
0.95 0.70 1.29 2.20 3.50 3.24 2.30 2.09 1.16 1.17 1.08 0.71 0.24 0.07 0.06 0.07 0.02 0.02 0.02 0.02 0.03 0.01 0.04 0.20 0.33 0.29 0.29 0.44 0.54 0.44 0.16 0.13 0.16 0.14 0.35 0.29 0.68 0.79 2.18 1.76 0.74 0.62 0.80 0.43 0.44 0.23 0.02 0.00 0.01
0.17 0.41 1.20 1.86 2.16 3.32 3.05 2.31 1.36 1.15 0.89 1.18 0.76 0.15 0.06 0.09 0.06 0.02 0.07 0.10 0.03 0.02 0.03 0.10 0.24 0.27 0.22 0.10 0.11 0.16 0.13 0.07 0.13 0.32 0.33 0.41 0.61 0.53 0.92 0.89 0.64 1.25 1.33 0.69 0.21 0.10 0.01 0.01 0.02
0.03 0.37 0.92 1.22 1.43 2.26 3.50 2.68 1.65 1.28 0.75 0.64 1.08 0.42 0.18 0.16 0.15 0.03 0.02 0.03 0.03 0.01 0.01 0.15 0.28 0.26 0.17 0.05 0.06 0.13 0.24 0.15 0.42 0.44 0.47 0.43 0.31 0.36 0.36 0.94 0.76 1.44 1.06 0.45 0.28 0.15 0.11 0.03 0.03
0.06 0.27 0.62 0.89 0.62 1.15 2.78 3.90 3.15 1.95 1.35 1.14 0.61 0.46 0.19 0.10 0.17 0.19 0.10 0.03 0.03 0.01 0.00 0.01 0.12 0.21 0.21 0.10 0.10 0.37 0.78 0.84 0.75 0.61 0.33 0.16 0.17 0.18 0.52 0.59 0.84 0.87 0.73 0.51 0.36 0.25 0.18 0.34 0.11
0.11 0.20 0.62 1.36 0.78 0.74 0.52 2.49 3.85 2.33 1.90 1.67 0.70 0.42 0.21 0.13 0.25 0.35 0.19 0.06 0.01 0.02 0.03 0.01 0.09 0.20 0.16 0.25 0.16 0.29 0.32 0.45 0.34 0.26 0.20 0.16 0.19 0.21 0.27 0.27 0.33 0.59 1.39 1.01 0.53 0.23 0.26 0.53 0.30
0.03 0.17 0.56 0.67 0.62 0.25 0.15 0.72 1.74 2.07 1.75 1.57 0.84 0.33 0.20 0.20 0.17 0.11 0.09 0.09 0.12 0.08 0.31 0.24 0.12 0.26 0.23 0.32 0.51 0.37 0.16 0.22 0.35 0.29 0.32 0.41 0.42 0.39 0.28 0.14 0.33 0.43 0.43 0.40 0.47 0.34 0.15 0.31 0.40
0.02 0.08 0.32 0.59 0.44 0.33 0.09 0.25 0.98 1.41 0.91 1.19 0.85 0.36 0.18 0.21 0.15 0.12 0.22 0.14 0.20 0.47 0.70 0.26 0.14 0.16 0.27 0.31 0.39 0.52 0.53 0.64 0.46 0.49 0.35 0.21 0.14 0.19 0.22 0.28 0.39 0.34 0.45 0.29 0.26 0.27 0.15 0.17 0.55
0.01 0.05 0.34 0.41 0.31 0.38 0.15 0.25 0.45 0.72 0.54 0.59 1.09 0.55 0.41 0.27 0.25 0.16 0.20 0.10 0.08 0.16 0.46 0.19 0.13 0.10 0.08 0.08 0.17 0.26 0.55 0.79 0.86 0.63 0.26 0.27 0.23 0.13 0.13 0.28 0.41 0.29 0.38 0.23 0.24 0.30 0.32 0.18 0.16
0.00 0.01 0.13 0.29 0.34 0.45 0.33 0.67 0.31 0.21 0.25 0.40 0.56 0.69 1.16 0.80 0.46 0.31 0.32 0.19 0.07 0.03 0.10 0.08 0.15 0.06 0.02 0.03 0.11 0.29 0.48 0.39 0.31 0.29 0.36 0.20 0.17 0.17 0.18 0.25 0.25 0.18 0.23 0.17 0.22 0.14 0.10 0.19 0.17
0.00 0.01 0.04 0.09 0.17 0.36 0.36 0.62 0.29 0.14 0.12 0.11 0.41 0.78 1.02 0.93 0.58 0.38 0.50 0.45 0.15 0.05 0.06 0.19 0.52 0.23 0.08 0.01 0.09 0.21 0.22 0.16 0.33 0.46 0.56 0.30 0.21 0.29 0.29 0.31 0.24 0.20 0.26 0.21 0.18 0.11 0.21 0.22 0.17
0.00 0.01 0.03 0.04 0.20 0.22 0.50 0.98 0.96 0.27 0.49 0.23 0.23 0.36 0.41 0.76 0.94 0.71 0.67 0.63 0.57 0.31 0.21 0.25 0.35 0.34 0.13 0.04 0.06 0.06 0.05 0.06 0.32 0.49 0.54 0.38 0.62 0.93 0.91 0.83 0.51 0.44 0.45 0.25 0.21 0.14 0.17 0.24 0.10
0.01 0.00 0.01 0.01 0.08 0.28 0.51 0.87 0.90 0.45 0.67 0.56 0.44 0.27 0.23 0.25 0.73 1.40 1.93 2.31 1.83 1.52 1.18 0.73 0.76 0.67 0.49 0.20 0.14 0.15 0.10 0.07 0.21 0.33 0.37 0.50 0.67 0.75 0.89 0.92 0.94 0.61 0.48 0.47 0.43 0.33 0.45 0.44 0.31
0.12 0.07 0.06 0.02 0.16 0.21 0.29 0.69 0.75 0.45 0.55 0.64 1.38 0.79 0.62 0.34 0.35 0.95 1.50 2.81 4.31 2.77 2.81 3.16 1.63 1.17 0.78 0.43 0.35 0.13 0.16 0.18 0.20 0.13 0.24 0.47 0.58 0.66 0.72 0.77 0.98 0.76 0.59 0.78 0.68 0.34 0.31 0.51 0.31